Regional Weather Roundup
Issued by NWS Kansas City/Pleasant Hill, MO

Home | Current Version | Previous Version | Graphics & Text | Print | Product List | Glossary Off
Versions: 1 2 3 4 5 6 7 8 9 10 11 12 13 14 15 16 17 18 19 20 21 22 23 24 25 26 27

000
ASUS43 KEAX 150710
RWREAX

WEATHER ROUNDUP FOR EASTERN KANSAS AND NORTHWEST MISSOURI
NATIONAL WEATHER SERVICE KANSAS CITY/PLEASANT HILL MO
100 AM CST FRI DEC 15 2017

KSZ040-057-103>105-MOZ028-029-037-043-150800-
...KANSAS CITY METROPOLITAN AREA...

CITY           SKY/WX    TMP DP  RH WIND       PRES   REMARKS
K.C. INTL      CLOUDY    34  26  72 W6        30.11F WCI  29
K.C. DOWNTOWN  CLOUDY    37  26  64 NW5       30.12F WCI  33
LEES SUMMIT    CLOUDY    34  26  72 W6        30.11F WCI  29
OLATHE - IXD   CLOUDY    36  28  73 NW8       30.13S WCI  30
OLATHE - OJC   CLOUDY    35  27  72 NW6       30.12S WCI  30
LAWRENCE       CLOUDY    36  31  82 W6        30.14S WCI  31

$$

MOZ001>008-011>017-020>025-030>033-038>040-044>046-053-054-150800-
...NORTHERN AND CENTRAL MISSOURI...

CITY           SKY/WX    TMP DP  RH WIND       PRES   REMARKS
ST. JOSEPH     CLOUDY    31  28  89 S3        30.13F
MOSBY          CLOUDY    30  27  86 CALM      30.12F
WARRENSBURG    CLEAR     28  25  86 CALM      30.12S
WHITEMAN AFB   MOCLDY    31  23  74 CALM      30.07F
CLINTON        CLOUDY    28  25  86 CALM      30.12S
SEDALIA        MOCLDY    32  26  78 CALM      30.12S
WARSAW         NOT AVBL
CHILLICOTHE      N/A     27  24  89 CALM      30.12F
KIRKSVILLE     CLOUDY    29  27  92 W5        30.07F WCI  24

$$

MOZ041-047>049-056>058-063>065-088>090-097-150800-
...EASTERN AND SOUTHERN MISSOURI...

CITY           SKY/WX    TMP DP  RH WIND       PRES   REMARKS
ST. LOUIS INTL CLOUDY    28  21  75 W5        30.10F WCI  23
SPIRIT OF STL  CLOUDY    28  22  78 CALM      30.10F
COLUMBIA       CLOUDY    30  23  75 W3        30.10F
JEFFERSON CITY PTCLDY    32  22  66 CALM      30.12F
ROLLA          CLOUDY    29  23  78 SW5       30.09F WCI  24
OSAGE BEACH    MOCLDY    32  24  72 CALM      30.12F
SPRINGFIELD    CLOUDY    32  26  78 SW5       30.10S WCI  27
BRANSON        CLOUDY    32  25  74 CALM      30.12F
JOPLIN         MOCLDY    34  27  75 S5        30.13F WCI  30
WEST PLAINS    CLOUDY    29  21  72 NE5       30.11S WCI  24

$$

IAZ060-094-KSZ022-034>040-054-083-096-NEZ052-066-093-150800-
...KANSAS...SOUTHEAST NEBRASKA AND IOWA...

CITY           SKY/WX    TMP DP  RH WIND       PRES   REMARKS
TOPEKA         CLOUDY    37  33  85 NW8       30.15S WCI  31
MANHATTAN      CLOUDY    39  32  76 NW6       30.17S WCI  35
EMPORIA        CLOUDY    37  30  75 NW10      30.16S WCI  30
CHANUTE        CLOUDY    40  31  70 NW9       30.14S WCI  34
WICHITA        MOCLDY    36  32  85 NW9       30.19S WCI  29
OMAHA          PTCLDY    32  22  66 NW14      30.13S WCI  22
LINCOLN        CLOUDY    35  29  78 NW9       30.16S WCI  28
FALLS CITY     CLOUDY    37  30  75 NW9       30.13S WCI  30
LAMONI         CLOUDY    31  24  75 W9        30.07F WCI  23
DES MOINES     FRZ DRZL  32  25  75 N9        30.06S WCI  24

$$





USA.gov is the U.S. government's official web portal to all federal, state and local government web resources and services.